Theta_e
284 284 284 283 283 283 284 283 283 284 285 286 286 286 287 288 288 287 288 288 287 287 287 287 287 288 288 291 293 294 295 295 296 296 297 297 297 298 298 298 298 298 298 299 299 299 299 299 299 299 299 299 300 300 301 301 301 302 302 302 303 303 303 303 303 303 303 303 303 303 303 303 303 303 303 303 303 303 303 303 304 304 304 305 306 306
284 284 284 283 282 283 284 283 283 283 284 285 285 286 287 286 286 287 287 287 287 287 287 287 287 287 286 289 292 294 294 295 296 296 296 297 297 297 297 297 298 298 298 298 298 298 298 298 298 298 299 299 299 299 300 300 300 301 301 301 301 302 302 302 302 302 302 302 302 302 302 302 302 302 302 302 303 303 303 303 304 304 304 305 306 306
284 283 283 283 283 283 284 284 283 284 284 284 285 286 285 285 285 286 287 287 287 287 287 287 287 287 287 288 291 293 294 295 295 296 296 296 297 297 297 297 297 297 297 297 297 298 298 298 298 298 298 298 298 299 299 299 299 300 300 300 300 300 300 301 301 301 301 301 301 301 301 301 301 301 302 302 302 302 303 303 303 304 304 305 305 306
283 283 283 284 283 283 283 284 284 284 285 285 285 285 284 285 285 286 286 286 286 287 287 287 287 287 287 288 290 292 294 294 295 295 296 296 296 296 296 296 296 297 297 297 297 297 297 298 298 298 298 298 298 298 298 298 299 299 299 299 299 299 299 299 299 300 300 300 300 300 300 300 300 301 301 301 302 302 302 302 303 303 304 305 305 306
283 283 283 284 284 283 283 284 284 285 286 285 285 284 284 284 285 286 286 286 286 286 286 287 287 287 287 287 289 292 293 294 294 295 295 295 295 296 296 296 296 296 296 296 297 297 297 297 297 297 297 298 298 298 298 298 298 298 298 298 298 298 298 298 299 299 299 299 299 299 299 300 300 300 300 301 301 301 302 302 302 303 303 304 305 305
283 284 284 284 284 284 284 284 285 285 285 285 284 284 284 284 285 285 285 286 286 286 287 287 287 287 287 287 289 292 293 294 294 294 294 294 295 295 295 295 295 296 296 296 296 296 297 297 297 297 297 297 297 297 297 297 297 297 297 298 298 298 298 298 298 298 298 298 298 298 299 299 299 299 299 300 300 300 301 301 302 302 303 303 304 305
284 285 285 284 284 284 284 284 285 285 284 284 284 284 284 284 285 285 284 285 285 286 286 286 287 286 286 287 289 291 292 292 293 293 293 294 294 294 294 295 295 295 295 295 296 296 296 296 296 296 296 297 297 297 297 297 297 297 297 297 297 297 297 297 297 297 297 298 298 298 298 298 298 298 299 299 299 300 300 301 301 302 302 302 303 303
284 284 285 284 283 284 284 284 284 284 284 284 284 284 284 284 285 284 284 284 284 285 285 286 286 286 286 286 287 289 289 290 290 290 291 292 293 293 294 294 294 295 295 295 295 295 295 296 296 296 296 296 296 296 296 296 296 296 296 296 296 296 296 297 297 297 297 297 297 297 298 298 298 298 298 298 299 299 299 300 301 301 302 302 302 303
283 283 284 284 283 283 283 283 283 283 283 283 284 283 283 284 284 284 284 284 284 284 285 285 286 286 286 285 286 287 288 289 289 289 289 290 290 291 292 293 294 294 294 294 295 295 295 295 295 295 295 295 295 296 296 295 295 295 295 295 295 295 296 296 296 296 296 297 297 297 297 297 297 297 298 298 298 298 299 299 300 300 301 301 302 302
283 283 283 284 284 284 283 283 283 283 283 284 284 284 284 283 283 283 284 284 284 284 285 285 285 285 285 285 286 286 288 289 290 290 291 290 290 291 292 292 292 293 293 294 294 294 294 294 294 294 295 295 295 295 295 295 295 295 295 295 295 295 295 295 296 296 296 296 296 296 297 297 297 297 297 297 297 298 298 298 298 299 300 300 301 301
283 283 283 283 284 284 284 283 283 284 283 284 284 284 284 284 284 283 283 283 284 284 284 284 284 284 285 285 285 286 287 287 287 289 290 290 291 291 291 291 291 292 292 293 293 293 293 294 294 294 294 294 294 294 294 294 294 294 294 294 294 295 295 295 295 295 296 296 296 296 296 296 297 297 297 297 297 297 298 298 298 298 299 299 300 301
283 283 283 283 283 283 284 284 284 284 284 284 283 283 284 284 284 284 283 283 283 283 284 284 284 284 284 284 285 285 286 285 285 286 286 287 288 289 289 289 289 290 291 291 292 292 293 293 293 293 293 293 293 293 293 293 293 293 294 294 294 294 294 295 295 295 295 295 296 296 296 296 297 297 297 297 297 297 297 297 298 298 298 298 299 300
283 283 283 282 283 283 283 283 284 284 284 284 283 283 284 284 285 284 283 283 283 283 283 283 283 284 284 284 284 285 285 285 285 285 285 285 285 286 286 286 287 287 288 288 288 289 291 292 292 292 292 292 293 293 293 293 293 293 293 293 294 294 294 294 294 295 295 295 296 296 296 296 296 297 297 297 297 297 297 297 297 297 298 298 298 299
282 282 282 282 282 283 283 283 283 283 284 284 284 284 284 284 284 284 283 282 282 283 283 283 283 283 284 284 284 284 284 284 284 284 284 285 284 285 285 286 286 286 287 286 287 287 290 290 290 290 292 292 292 292 292 292 293 293 293 293 294 294 294 294 295 295 295 295 296 296 296 296 296 296 296 297 297 297 297 297 297 297 297 298 298 298
282 282 282 282 282 283 284 284 284 284 284 284 285 284 284 284 283 282 282 282 282 283 283 282 282 282 283 283 283 283 283 283 283 284 284 284 285 285 285 285 286 286 286 286 286 287 289 289 288 288 289 289 290 290 291 292 293 293 293 294 294 294 294 294 295 295 295 295 295 295 295 296 296 296 296 296 296 296 296 297 297 297 297 297 297 298
282 282 282 282 282 283 284 284 284 284 284 284 284 283 282 282 282 282 282 282 282 282 282 281 281 281 282 283 283 283 283 283 283 283 284 284 285 286 286 286 285 286 286 286 286 287 288 288 288 288 288 289 290 292 292 292 293 293 293 294 294 294 294 294 294 294 294 295 295 295 295 295 295 295 295 296 296 296 296 296 296 296 297 297 297 297
283 283 283 283 283 283 284 284 284 283 283 283 283 282 282 282 282 283 282 282 282 282 281 281 280 280 281 282 283 283 284 284 284 284 284 284 285 286 286 286 285 285 285 286 286 286 287 287 287 287 288 290 291 292 292 292 293 293 293 293 293 293 293 293 294 294 294 294 294 294 294 294 295 295 295 295 295 295 295 296 296 296 296 296 296 296
284 284 284 283 283 283 283 283 282 282 282 282 282 283 283 283 283 283 283 282 282 281 281 281 280 280 280 281 282 284 285 285 285 284 284 284 284 285 286 286 285 285 285 285 286 286 286 286 287 287 288 290 291 292 292 292 292 292 293 293 293 293 293 293 293 293 293 294 294 294 294 294 294 294 294 294 294 295 295 295 295 295 296 296 296 296
284 284 283 283 282 282 282 282 282 282 282 282 282 283 283 283 283 283 283 282 282 282 281 281 281 281 281 281 283 285 287 286 285 284 283 283 284 285 285 285 285 284 284 285 285 286 286 286 287 289 290 291 291 291 292 292 292 292 292 292 292 292 292 292 293 293 293 293 293 293 293 294 294 294 294 294 294 294 294 294 295 295 295 295 295 295
283 283 283 282 282 281 281 282 282 283 283 283 283 283 282 282 282 282 282 283 283 283 282 282 281 282 282 282 283 285 287 286 285 283 282 282 282 283 284 284 284 283 283 284 284 285 285 285 286 287 289 290 290 291 291 291 291 292 292 292 292 292 292 292 292 293 293 293 293 293 293 293 293 293 293 293 293 294 294 294 294 295 295 295 295 295
283 282 283 283 282 281 281 282 283 284 285 285 284 283 283 282 282 282 283 283 283 283 283 282 282 282 283 283 284 285 286 285 283 282 281 281 281 282 283 283 283 282 282 283 284 285 285 285 285 285 287 289 290 290 291 291 291 291 291 292 292 292 292 292 292 292 292 292 293 293 293 293 293 293 293 293 293 293 294 294 294 294 294 294 295 295
282 282 283 283 283 282 283 283 284 285 286 285 284 283 283 283 282 282 283 283 283 283 283 283 283 284 284 284 284 285 286 285 283 282 281 280 280 281 283 283 282 282 282 282 283 284 284 284 284 285 287 289 290 290 290 291 291 291 291 291 291 291 291 291 292 292 292 292 292 292 292 293 293 293 293 293 293 293 293 293 294 294 294 294 294 294
283 283 284 284 284 284 284 285 285 286 286 286 285 285 284 284 284 284 284 284 284 284 284 284 284 284 284 283 284 284 284 284 283 282 281 279 279 280 282 282 282 281 281 282 283 284 284 284 284 285 287 289 290 290 290 290 290 291 291 291 291 291 291 291 291 291 292 292 292 292 292 292 292 293 293 293 293 293 293 293 293 293 293 294 294 294
285 285 285 285 285 285 285 285 286 286 286 286 286 286 287 287 287 286 286 285 285 284 284 283 283 282 282 282 282 282 283 283 283 282 281 279 279 280 281 282 281 281 281 282 283 283 284 284 284 285 286 288 289 289 290 290 290 290 290 291 291 291 291 291 291 291 291 291 292 292 292 292 292 292 292 292 292 292 293 293 293 293 293 293 293 294
286 286 286 286 286 287 287 287 287 288 288 288 288 288 288 288 287 287 286 285 284 283 282 281 280 279 280 281 281 281 282 282 282 282 280 279 279 280 281 281 281 281 281 282 283 283 283 283 283 284 284 286 288 289 289 290 290 290 290 290 290 290 291 291 291 291 291 291 291 292 292 292 292 292 292 292 292 292 292 292 292 293 293 293 293 293
287 287 287 288 289 289 290 290 290 291 290 289 288 287 286 286 285 284 283 282 282 281 280 279 278 278 279 279 279 279 280 281 282 282 281 280 279 279 280 281 281 281 281 282 282 283 283 283 283 283 284 285 286 288 289 289 289 290 290 290 290 290 290 290 291 291 291 291 291 291 291 291 291 291 292 292 292 292 292 292 292 292 292 292 292 292
289 289 289 290 290 290 290 291 291 290 290 289 288 287 286 284 283 281 280 281 280 280 279 278 277 277 278 278 278 279 280 281 282 282 281 280 279 279 280 281 281 281 281 281 282 283 283 283 283 283 283 284 285 286 288 289 289 289 289 290 290 290 290 290 290 290 290 290 291 291 291 291 291 291 291 291 291 291 291 291 292 292 292 291 291 291
289 289 289 290 290 290 289 289 289 288 288 288 288 287 286 283 281 280 279 280 280 280 278 277 276 276 277 277 277 279 280 281 281 282 282 281 280 279 280 281 281 281 280 281 281 282 283 283 283 283 283 283 284 285 287 288 289 289 289 289 289 290 290 290 290 290 290 290 290 290 290 290 290 291 291 291 291 291 291 291 291 291 291 290 289 289
288 289 289 289 288 288 287 286 286 286 287 286 287 286 285 283 281 280 280 280 280 279 278 277 277 277 277 277 278 279 279 280 281 282 282 281 279 279 280 280 281 281 280 280 280 281 281 282 282 282 282 284 284 284 285 286 287 287 288 288 289 289 289 289 289 289 289 289 290 290 290 290 290 290 290 290 290 290 291 291 291 290 290 289 288 288
286 286 285 285 284 284 283 282 283 284 285 286 286 285 285 283 281 281 280 280 279 278 278 278 277 277 277 277 277 277 277 278 280 281 282 280 279 279 280 280 280 280 280 279 278 278 278 280 281 282 283 284 284 283 283 284 284 285 285 286 287 288 288 288 289 289 289 289 289 289 290 290 290 290 290 290 290 290 290 290 290 289 288 288 287 287
283 281 280 279 279 280 280 280 281 282 283 284 284 284 283 282 281 281 281 281 280 279 278 278 278 278 278 277 276 276 276 277 280 282 282 280 279 279 279 279 279 280 280 279 277 276 276 278 280 281 282 283 283 283 283 283 284 284 284 284 285 286 287 288 288 288 289 289 289 289 289 290 290 290 290 290 290 290 290 290 290 289 288 287 287 287
280 279 278 278 278 278 278 279 279 279 280 281 281 282 282 282 282 282 282 281 280 280 279 279 278 278 278 277 276 276 277 278 281 282 282 280 279 279 280 279 279 279 280 280 278 277 276 277 278 280 281 282 282 282 283 283 284 283 283 283 284 284 286 287 287 287 288 288 288 289 289 289 289 289 289 289 290 290 290 290 290 289 287 286 286 286
278 278 278 278 278 278 278 278 278 278 279 279 279 280 281 282 282 282 282 281 281 280 280 279 278 278 278 278 277 277 278 279 281 283 283 281 279 279 279 279 279 279 279 280 279 278 277 277 278 279 280 281 281 282 283 283 284 283 283 283 283 283 285 286 286 286 286 287 287 288 288 288 289 289 289 289 289 289 290 290 289 289 288 286 286 286
277 277 277 277 277 277 277 277 277 278 278 279 279 280 280 281 281 282 282 282 281 281 280 279 279 278 278 277 277 277 278 279 281 283 283 281 279 279 279 279 278 278 278 278 278 278 278 278 278 278 279 280 281 282 282 283 283 283 283 283 283 283 284 284 284 284 285 285 285 285 286 287 287 288 288 288 289 289 289 289 289 289 289 287 286 286
276 276 276 276 276 276 276 276 276 277 278 278 279 280 280 280 281 281 281 281 281 281 281 280 280 279 278 277 277 277 277 279 281 283 283 281 280 279 278 278 278 278 278 278 278 278 277 278 278 278 278 279 279 280 281 282 283 283 283 283 283 283 283 283 283 284 284 284 284 284 284 285 285 286 286 287 288 288 289 289 289 289 289 289 288 287
275 275 276 276 276 276 276 277 277 277 278 278 278 279 279 280 280 280 281 280 281 281 281 281 281 280 280 279 278 277 278 279 281 282 283 281 280 279 278 278 279 279 278 278 278 277 277 277 278 279 278 278 278 279 281 282 282 283 283 283 283 283 283 283 283 283 283 283 283 283 284 284 284 285 285 287 288 288 288 289 289 289 289 289 289 288
275 275 275 275 275 276 276 277 277 277 277 278 278 278 279 279 279 280 280 280 280 280 281 281 281 281 281 281 280 279 279 280 281 282 282 281 281 280 279 279 279 280 279 278 278 278 277 277 277 278 278 277 277 278 279 281 281 281 281 282 282 283 283 283 283 283 283 283 283 283 284 284 284 284 285 286 287 288 288 288 289 289 289 289 289 289
275 275 275 275 276 276 276 276 277 277 278 278 278 278 278 278 279 279 279 279 279 279 279 280 280 281 282 282 282 281 281 281 281 281 281 281 281 280 279 279 280 280 280 279 278 278 277 277 276 276 276 277 278 279 279 280 280 280 280 282 282 282 282 283 283 283 283 283 283 284 284 284 284 284 285 285 285 285 285 286 286 287 288 288 288 289
274 275 275 276 276 277 277 277 277 277 278 278 278 278 279 279 279 279 279 279 279 279 280 280 280 280 280 281 281 282 282 281 281 281 281 281 281 280 280 279 279 280 280 280 279 279 278 277 276 276 276 277 277 278 279 279 279 279 280 281 281 282 282 283 283 283 283 283 283 284 284 284 284 283 283 283 283 283 283 283 284 285 285 285 286 287
275 275 276 277 277 277 277 277 277 277 278 278 279 279 279 279 279 279 279 280 280 280 280 279 280 280 280 281 281 281 282 281 281 281 281 281 280 280 280 280 279 280 280 280 280 279 278 278 277 277 278 277 277 278 278 279 279 280 280 280 280 280 282 282 283 283 283 283 282 282 282 282 282 282 282 283 283 282 282 282 283 284 284 283 283 283
276 276 276 277 277 277 278 278 278 278 278 278 278 278 278 278 278 278 279 279 279 279 280 280 280 280 280 280 280 280 280 280 281 281 281 280 280 280 280 280 280 280 280 279 279 279 279 278 278 278 278 278 278 278 278 279 280 281 281 280 279 280 281 282 282 282 282 282 282 282 282 282 282 282 282 283 283 283 283 283 283 283 284 284 283 282
276 276 276 276 276 277 277 277 278 278 279 278 278 277 277 277 277 277 278 277 277 278 279 279 278 278 278 279 279 279 280 280 280 281 281 280 280 280 281 280 280 280 280 279 279 279 279 279 279 278 278 278 278 278 278 279 280 281 281 280 280 280 281 282 282 282 281 281 281 281 282 282 281 282 282 282 282 283 284 283 284 284 284 284 284 283
276 276 276 276 277 277 277 278 278 278 277 277 277 277 277 277 277 277 277 277 277 277 278 278 278 277 277 277 277 278 279 280 280 281 281 281 281 281 281 281 281 281 280 280 279 279 279 280 279 279 279 279 279 278 278 278 279 280 280 280 280 279 278 279 280 281 281 281 281 281 281 281 281 281 282 282 282 283 283 284 285 285 285 284 284 284
276 276 276 277 277 277 277 277 277 276 276 276 276 276 277 277 277 278 277 277 277 277 277 277 277 277 277 276 277 277 278 279 280 280 281 282 282 282 282 281 281 281 281 280 279 279 279 279 279 280 280 280 279 279 278 278 278 279 279 280 279 279 277 278 279 280 280 280 280 280 280 281 281 281 281 281 282 282 282 283 283 284 285 285 284 284
276 276 276 277 277 276 276 275 275 276 276 276 276 276 276 277 277 277 277 277 277 277 277 277 277 276 276 276 276 277 278 278 279 280 280 282 283 284 283 282 282 281 281 281 280 280 279 279 279 280 280 280 280 279 278 278 278 278 279 279 279 279 279 279 279 279 279 279 280 280 280 281 281 280 280 280 280 281 281 282 282 282 283 283 284 284
276 275 276 276 275 275 275 275 275 275 275 275 276 276 276 277 277 277 277 277 276 277 277 277 277 276 275 275 276 276 277 277 278 279 280 281 281 282 282 282 282 282 282 281 281 281 280 280 280 280 280 279 279 278 278 278 277 277 278 278 279 279 279 279 279 279 279 279 279 280 280 280 280 280 279 279 280 280 281 281 281 282 282 282 283 283
275 275 275 274 274 274 274 275 275 275 275 275 275 275 276 276 276 276 277 277 277 276 277 277 276 276 275 275 276 276 276 276 277 278 279 279 280 281 282 282 282 283 282 282 282 282 281 281 281 280 279 278 277 277 277 278 277 277 277 278 278 278 277 278 278 279 279 279 279 279 280 280 279 279 279 279 279 280 280 281 282 282 282 282 283 283
275 274 274 274 274 274 274 274 274 274 274 274 275 275 276 276 276 277 276 276 277 277 276 276 276 275 275 276 276 277 277 277 277 277 278 279 280 280 281 281 282 282 283 282 282 282 282 281 281 280 279 278 277 276 276 277 277 277 277 278 277 277 277 278 278 279 279 279 279 279 279 279 279 278 278 278 279 279 280 281 281 282 283 283 283 283
274 274 274 274 273 273 273 274 274 274 274 274 274 275 275 276 277 277 276 276 276 276 276 275 275 275 275 276 276 277 277 277 277 278 278 279 279 280 280 281 281 281 281 281 281 281 281 281 281 281 280 279 278 277 276 277 277 278 278 278 278 277 277 278 278 279 279 279 279 279 279 279 279 279 279 278 278 278 279 280 281 282 283 283 284 284
274 274 274 273 273 273 273 274 274 274 274 274 274 275 275 276 276 276 276 276 276 276 276 275 275 275 275 275 276 277 277 277 277 278 278 279 279 280 280 280 280 279 279 278 278 278 278 278 279 280 282 282 280 279 277 277 277 277 278 278 278 278 278 278 278 279 279 280 279 280 280 280 280 280 279 279 278 278 279 279 280 281 282 283 284 284
274 274 273 273 273 273 273 274 274 274 274 274 275 275 275 275 275 276 276 276 276 276 276 276 276 276 275 276 276 277 277 277 277 277 278 279 279 280 279 279 279 278 277 276 276 276 275 275 275 277 279 282 282 282 279 278 277 277 277 277 278 278 278 278 279 279 280 280 280 280 280 280 280 280 280 279 279 278 278 279 280 281 282 283 283 284
Wind_Speed
3 3 4 4 4 4 4 4 4 5 6 6 6 6 6 7 7 7 8 8 7 7 7 7 7 8 10 14 17 19 21 21 21 21 21 22 22 22 22 22 22 22 22 22 22 22 23 23 23 23 23 23 24 24 24 24 24 24 24 24 24 24 24 24 24 24 24 24 23 23 23 23 22 22 22 22 22 21 22 22 21 21 21 21 21 22
3 3 3 4 4 4 4 4 4 4 6 7 7 7 7 7 7 6 6 6 6 6 6 7 7 8 9 11 15 18 20 21 21 21 21 22 22 22 22 22 22 23 23 23 23 23 23 23 23 23 24 24 24 24 24 24 24 24 24 24 24 24 24 24 24 24 24 24 24 24 23 23 23 22 22 22 22 22 22 22 22 22 22 22 22 22
4 3 3 3 4 4 4 5 4 4 5 6 7 7 7 7 7 6 6 6 6 6 6 6 7 8 8 10 13 17 19 20 21 21 22 22 22 22 22 23 23 23 23 23 23 23 23 23 24 24 24 24 24 24 24 24 24 24 24 24 24 24 24 24 24 24 24 24 24 24 23 23 23 23 23 23 23 23 23 23 22 22 22 22 22 22
4 4 4 3 3 3 4 4 5 5 5 6 7 7 7 6 6 6 6 6 6 6 6 6 7 7 7 8 11 14 18 20 21 21 22 22 22 22 23 23 23 23 23 23 23 23 23 24 24 24 24 24 24 24 24 24 24 24 24 24 24 24 24 24 24 24 24 24 24 24 24 23 23 23 23 23 23 23 23 23 23 23 23 23 23 23
4 4 4 4 3 4 4 4 5 5 6 6 6 6 5 5 5 5 6 6 6 6 6 6 6 6 6 7 9 13 17 20 21 21 22 22 22 22 23 23 23 23 23 23 23 23 24 24 24 24 24 24 24 24 25 25 25 25 25 25 25 25 25 25 25 25 25 24 24 24 24 24 24 24 24 24 24 24 24 23 23 23 23 23 23 24
5 4 4 4 4 4 4 4 4 5 5 5 5 5 5 4 5 5 5 6 6 6 6 5 5 6 6 7 9 13 17 19 20 21 21 22 22 22 22 22 22 23 23 23 23 23 24 24 24 24 24 25 25 25 25 25 25 25 25 25 25 25 25 25 25 25 25 25 25 25 24 24 24 24 24 24 24 24 24 24 24 24 24 24 24 24
5 4 4 3 3 3 3 4 4 4 4 4 4 4 4 4 4 5 5 5 5 5 5 5 5 5 5 7 9 12 14 16 18 19 20 20 21 21 21 22 22 22 23 23 23 23 24 24 24 25 25 25 25 25 25 25 25 25 25 25 25 25 25 25 25 25 25 25 25 25 25 25 25 25 24 24 24 24 24 24 24 24 24 24 24 24
5 5 5 4 4 4 4 3 3 3 4 4 4 5 5 4 4 4 5 5 4 4 4 4 4 4 4 5 7 9 9 11 12 13 15 16 17 18 19 20 21 22 22 23 23 23 24 24 25 25 25 25 25 25 26 26 26 25 25 25 25 25 25 25 25 26 25 25 25 25 25 25 25 25 25 25 25 25 25 25 25 25 25 25 25 25
6 6 6 5 4 4 5 4 3 3 3 4 4 5 6 6 5 5 4 4 4 3 3 4 5 5 4 4 5 6 8 9 9 10 11 11 12 14 16 18 19 21 22 22 23 24 24 24 25 25 25 25 26 26 26 26 26 26 26 26 26 26 26 26 26 26 26 26 26 26 26 26 26 26 26 25 25 25 25 25 25 25 25 25 25 25
6 6 6 5 4 4 5 5 4 3 3 4 4 5 5 6 6 6 5 4 4 3 3 4 5 6 6 5 5 6 8 10 11 13 14 13 14 16 16 17 17 18 21 22 23 24 24 24 25 25 25 26 26 26 26 26 26 26 26 26 26 26 26 26 26 26 26 26 26 26 26 26 26 26 26 26 26 25 25 25 25 25 25 25 25 25
5 5 5 4 4 4 4 4 4 4 4 4 4 4 4 4 5 6 7 7 6 4 4 4 4 5 6 6 6 6 8 8 9 11 13 14 16 17 17 17 17 18 20 21 22 23 23 24 25 25 25 25 26 26 25 25 25 25 25 25 26 26 26 26 26 26 27 27 27 27 27 27 27 27 27 26 26 26 26 26 25 25 25 25 25 25
5 5 4 4 4 4 4 4 4 4 4 3 3 3 3 3 3 5 8 8 8 7 6 5 4 4 5 6 7 7 7 7 7 7 7 8 10 11 11 12 13 14 16 17 18 19 21 22 23 24 24 24 24 25 25 24 25 25 25 26 26 26 26 26 27 27 27 27 27 27 27 27 27 27 27 27 27 27 26 26 26 26 26 25 26 26
4 4 4 4 4 4 4 4 4 4 3 3 4 5 5 4 4 5 6 7 8 7 7 6 6 5 5 5 5 5 6 6 6 6 5 5 5 5 6 7 8 8 9 10 11 12 16 19 20 21 22 22 23 23 24 24 24 25 26 26 26 26 27 27 27 27 27 27 27 27 27 27 27 27 27 27 27 27 27 27 27 26 26 26 26 26
5 5 5 5 5 5 4 4 4 4 4 4 4 5 5 5 5 5 6 6 7 6 6 7 7 6 4 4 4 4 4 5 5 5 5 5 4 4 5 6 7 7 7 8 8 9 12 14 14 15 18 19 20 21 21 23 24 25 25 26 26 26 26 27 27 27 27 27 27 27 27 27 27 27 27 27 27 27 27 27 27 27 27 27 26 26
5 5 6 6 5 5 4 4 5 5 5 5 5 5 5 5 5 5 6 7 7 7 7 7 7 6 4 4 3 3 4 4 4 5 6 6 5 5 5 7 8 8 7 8 9 10 11 11 10 10 12 14 16 18 19 21 23 25 25 26 26 26 26 26 27 27 27 27 27 28 28 28 28 28 28 28 28 28 28 28 27 27 27 27 27 27
5 5 6 6 6 5 4 4 5 5 6 5 5 5 6 6 6 6 6 7 7 7 7 8 8 7 5 3 3 3 3 4 4 6 8 7 6 5 6 7 8 9 8 8 9 9 9 9 9 9 10 14 17 20 22 23 24 25 25 26 26 27 27 27 27 28 28 28 28 28 28 29 29 29 28 28 28 28 28 28 28 28 27 27 27 27
5 5 5 6 6 6 5 5 5 5 6 5 5 5 5 6 6 6 6 7 6 6 6 6 7 7 6 4 3 2 2 4 6 7 9 9 8 6 6 7 9 10 9 9 9 9 8 8 8 8 9 13 18 21 23 24 24 25 26 27 27 27 28 28 28 28 29 29 29 29 29 29 29 29 29 29 29 29 28 28 28 28 28 28 28 28
5 5 5 5 6 6 6 6 5 4 5 5 5 5 5 5 5 6 6 6 6 6 6 6 6 6 6 6 5 3 3 6 8 9 10 11 9 7 6 7 8 10 10 9 9 8 8 8 8 9 11 17 20 23 24 25 26 26 27 28 28 28 29 29 29 29 29 29 29 30 30 30 29 29 29 29 29 29 29 29 29 29 29 29 29 28
5 5 5 5 5 6 6 5 5 5 5 5 6 6 6 6 6 6 7 6 6 7 7 7 7 6 7 7 7 6 6 7 8 10 11 11 10 8 6 7 8 10 10 9 9 8 8 8 10 13 17 20 22 24 25 26 26 27 27 28 28 29 29 29 29 30 30 30 30 30 30 30 30 30 30 30 30 30 29 29 29 29 29 29 29 29
6 5 5 5 6 6 6 6 6 6 6 6 6 6 7 7 7 7 7 6 6 6 6 7 7 8 7 8 8 7 7 8 9 10 11 12 11 9 6 6 7 9 9 8 7 7 8 8 10 12 17 19 22 24 25 26 26 27 28 28 28 29 29 29 30 30 30 30 30 30 30 30 30 30 30 30 30 30 30 30 30 30 30 30 30 29
7 6 5 5 5 6 6 6 6 7 8 7 7 7 7 7 7 7 7 6 7 7 6 7 8 8 7 8 9 8 8 8 9 9 9 10 9 7 5 5 6 8 10 8 7 7 8 8 8 9 13 18 21 23 25 26 27 27 28 28 28 29 29 30 30 30 30 31 31 31 31 31 31 31 31 30 30 30 30 30 30 30 30 30 30 30
7 7 7 6 6 6 7 7 8 8 9 8 8 7 7 7 7 7 7 7 7 7 7 8 8 8 8 9 10 9 8 7 7 8 7 10 10 8 4 5 6 7 9 8 8 8 8 8 8 9 13 18 22 24 25 26 27 27 28 28 29 29 29 30 30 30 30 31 31 31 31 31 31 31 31 31 31 30 30 30 30 30 30 30 30 30
7 7 7 7 7 7 7 7 8 8 8 8 8 7 6 6 7 7 7 7 7 7 8 8 8 9 9 9 9 9 7 6 6 6 7 10 11 9 5 5 6 8 9 8 8 8 9 8 9 10 13 19 22 24 26 26 27 27 28 28 29 29 29 30 30 30 30 31 31 31 31 31 31 31 31 31 31 31 30 30 30 30 30 30 30 30
7 7 7 7 6 6 6 7 7 6 6 6 6 6 6 6 6 6 6 6 7 7 8 8 9 9 9 9 8 7 6 5 5 5 6 8 9 9 5 5 7 10 11 9 8 8 9 9 9 9 10 16 20 23 25 26 27 27 28 28 29 29 29 29 30 30 30 30 31 31 31 31 31 31 31 31 31 30 30 30 30 30 30 30 30 30
6 7 7 7 8 9 9 9 9 9 8 7 7 6 7 7 7 7 6 7 7 8 8 9 9 9 8 8 7 6 5 4 4 5 6 7 8 9 6 6 7 9 11 9 8 8 9 10 10 9 9 13 18 22 24 26 26 27 28 28 28 29 29 29 29 30 30 30 30 30 30 31 31 31 31 31 30 30 30 30 30 30 30 30 30 30
10 11 11 12 14 16 18 18 17 16 16 12 9 8 7 7 7 7 7 7 7 7 8 9 9 8 7 6 6 5 4 4 4 4 5 6 8 9 7 6 6 8 10 9 9 9 11 11 10 10 9 11 15 19 22 24 25 26 27 27 27 28 28 28 29 29 29 30 30 30 30 30 31 31 31 31 31 31 31 31 31 31 31 31 30 30
17 18 19 20 20 19 19 19 19 20 20 18 16 13 11 8 7 8 7 7 6 7 7 8 9 9 8 7 6 5 5 4 4 4 5 6 8 9 7 6 6 8 11 11 10 10 12 12 12 11 10 10 11 14 19 21 23 24 25 26 26 27 27 28 28 29 29 30 30 30 31 31 31 31 31 31 31 31 31 31 31 31 31 30 27 25
19 18 18 17 17 17 17 18 18 19 20 20 20 18 13 9 7 8 8 6 6 7 7 8 9 9 8 7 7 6 6 5 5 4 5 5 7 7 7 7 7 8 10 11 11 11 12 12 11 11 10 10 10 11 14 17 20 22 23 24 25 26 27 28 29 29 30 30 31 31 31 31 31 32 32 32 31 31 31 31 31 31 29 25 20 16
15 15 14 14 14 15 16 16 16 17 18 19 19 17 12 8 7 7 7 7 7 7 8 8 8 8 8 8 8 7 7 5 4 4 4 5 6 7 6 7 7 8 9 10 10 10 10 9 9 9 9 10 10 9 10 13 15 17 19 22 24 25 26 28 29 29 30 30 31 31 31 31 31 32 32 32 31 31 31 32 31 28 23 19 16 14
8 8 8 9 10 11 11 11 11 13 15 17 17 15 11 7 6 6 7 7 7 7 8 8 8 8 8 8 8 8 6 4 3 3 4 5 6 7 7 8 8 8 7 8 9 9 8 7 6 7 8 10 10 9 8 9 10 11 13 17 19 21 24 26 27 28 29 30 30 31 31 31 31 31 31 31 31 31 31 32 30 25 17 14 13 13
4 5 5 5 6 6 6 7 7 9 11 12 13 12 9 7 6 6 6 6 6 7 8 8 8 8 8 7 7 7 5 4 4 4 5 6 6 7 8 9 9 8 7 6 8 9 10 8 7 7 9 10 10 10 9 9 10 10 10 11 12 15 19 22 24 26 27 28 28 29 30 30 30 31 31 31 31 31 31 32 29 23 15 13 13 13
5 5 5 5 5 5 5 5 5 6 6 7 7 7 7 7 7 6 6 6 6 7 7 8 8 8 8 7 7 7 6 5 6 7 7 6 6 7 7 9 9 9 7 6 7 8 10 9 8 8 9 10 10 10 10 10 10 10 9 10 10 12 16 19 21 21 22 24 25 27 28 29 29 30 30 30 30 30 31 31 29 24 16 14 13 13
6 6 5 5 5 5 5 5 5 5 5 5 5 5 6 6 7 7 6 6 6 6 7 8 8 9 9 9 9 8 7 7 8 9 9 7 6 6 7 8 10 10 9 8 8 8 9 10 10 10 10 10 10 10 10 10 10 10 10 10 11 12 14 15 16 16 16 18 20 21 24 26 27 28 29 29 29 30 30 31 30 26 21 15 13 13
6 6 6 6 5 5 5 5 5 5 5 5 5 5 5 5 6 6 6 6 6 6 6 7 8 9 9 9 9 9 9 8 9 10 10 8 7 7 8 9 10 10 10 9 9 9 9 11 12 11 10 10 9 9 10 10 11 10 10 10 11 11 11 11 12 12 13 14 14 15 17 18 21 23 24 26 27 27 28 29 30 29 27 20 16 14
6 6 6 5 5 5 5 5 5 5 5 5 5 5 5 5 5 6 6 6 6 6 6 7 7 8 9 9 10 10 10 9 10 11 11 9 8 7 8 9 9 10 10 10 10 9 10 12 13 13 12 12 10 9 9 10 10 10 10 10 11 11 11 10 10 11 12 12 12 12 12 13 14 16 18 20 23 25 27 28 29 30 30 27 23 18
5 6 6 5 5 5 5 5 5 5 5 5 5 5 5 5 6 6 6 6 7 7 8 8 8 8 9 9 10 11 11 10 11 11 12 10 9 9 8 9 9 10 11 11 11 10 11 12 14 14 14 14 12 10 9 9 10 10 10 10 11 11 11 11 11 11 12 12 12 12 12 12 12 13 14 19 22 25 27 28 29 30 31 31 29 26
5 5 5 4 5 5 5 5 5 5 5 5 5 5 5 6 6 7 7 7 7 8 9 10 10 10 11 11 11 12 12 11 12 12 13 12 11 10 10 10 10 11 11 12 12 11 12 13 14 14 13 13 12 11 10 10 10 10 11 11 11 11 12 11 11 11 12 12 13 13 13 13 13 13 14 19 22 24 25 27 28 28 30 30 31 31
5 5 5 4 4 4 5 5 5 5 5 5 6 6 6 7 7 8 8 8 8 9 9 9 10 11 14 15 15 15 14 15 15 16 16 13 12 11 11 11 12 12 12 12 12 12 12 13 14 14 13 13 13 13 13 12 12 12 12 11 11 11 11 11 11 11 11 12 13 13 14 13 13 13 13 15 15 15 17 17 19 21 25 25 28 29
5 5 5 5 5 5 5 5 5 5 6 6 6 7 7 8 8 8 8 8 8 9 10 10 10 10 12 14 16 17 16 16 17 17 16 14 12 11 12 12 13 13 13 12 12 13 13 13 13 13 13 14 14 14 13 12 13 13 13 13 12 11 11 11 11 11 11 11 12 13 13 12 12 12 12 12 12 12 13 13 13 15 16 16 18 22
5 5 5 5 5 5 5 6 6 6 6 7 7 8 8 8 8 8 8 8 8 9 9 10 10 10 11 12 13 14 15 14 14 14 13 12 11 11 12 13 13 13 13 12 12 12 13 13 14 14 14 15 15 14 13 13 13 13 14 13 11 10 10 10 11 11 11 11 12 12 12 12 12 12 12 12 12 12 12 11 11 12 13 12 12 13
6 6 6 5 5 5 6 6 6 6 7 7 7 7 7 7 7 7 7 8 8 8 8 9 9 9 9 10 11 12 12 13 13 13 12 13 13 14 12 13 13 13 13 13 13 12 13 14 14 15 14 15 16 16 16 15 15 16 17 14 13 12 12 12 12 11 11 11 11 12 12 13 13 13 12 13 13 12 12 12 12 12 12 11 11 11
7 6 6 5 5 5 6 6 7 7 7 7 7 7 7 7 7 8 8 8 7 8 8 8 9 9 10 10 10 10 10 11 12 13 13 14 15 14 14 13 13 13 13 13 14 14 13 14 15 15 15 15 15 15 15 15 15 15 15 14 14 14 14 13 11 10 11 11 11 11 12 12 12 12 12 12 12 12 12 13 14 14 14 12 11 11
6 6 6 6 6 6 6 7 7 7 7 6 7 7 7 6 7 7 9 8 9 9 9 9 9 10 11 11 10 9 9 9 10 12 13 13 14 15 14 14 14 13 13 13 14 14 14 14 14 14 14 14 15 16 16 16 15 14 14 14 14 13 11 10 9 9 10 11 11 11 11 11 11 11 11 12 11 11 11 13 15 16 16 13 12 11
6 6 5 6 6 6 6 6 6 6 6 7 7 7 7 7 7 8 9 9 9 9 9 9 9 10 11 11 11 10 9 8 9 11 12 13 14 14 14 15 15 14 13 13 13 13 13 13 14 14 14 14 14 15 16 16 15 15 14 14 14 14 13 12 11 11 11 11 11 11 11 11 11 11 11 12 11 11 11 12 12 13 14 13 12 12
5 5 5 6 6 6 6 6 6 6 7 7 7 7 7 7 8 8 8 9 9 9 9 9 9 9 10 10 11 11 10 10 9 9 10 12 15 16 15 14 13 13 12 12 12 12 12 13 13 13 12 13 14 15 16 16 16 16 16 15 15 15 15 14 13 13 12 12 12 12 12 11 11 11 11 11 11 11 11 12 12 12 12 12 12 12
5 5 5 5 5 6 7 7 7 7 7 7 7 7 7 8 7 7 9 9 10 10 9 9 9 9 10 11 11 11 11 10 10 9 9 9 10 11 11 11 11 11 10 11 11 12 12 12 13 13 13 14 15 15 16 16 16 16 16 16 15 14 14 14 13 13 13 13 12 12 12 12 11 11 11 11 12 12 12 12 12 12 12 12 12 12
5 5 5 5 6 6 6 7 7 7 7 7 7 7 7 7 8 8 9 9 9 9 9 9 9 10 11 11 11 11 12 12 12 11 10 10 10 10 10 10 11 11 10 10 11 11 12 12 13 14 14 15 15 16 15 15 15 16 16 15 14 14 14 13 13 12 12 13 13 12 12 11 11 11 12 12 12 12 11 12 12 12 12 12 12 12
5 5 6 6 6 6 7 7 7 7 7 7 7 7 8 8 8 9 9 9 9 9 10 9 9 10 11 11 11 12 13 13 13 13 12 11 11 11 10 9 9 9 10 10 11 12 13 13 14 14 14 15 15 16 16 15 15 14 14 14 14 14 14 14 13 12 12 13 13 13 12 10 11 12 12 12 12 12 11 11 12 12 12 12 12 12
5 5 6 6 6 6 7 7 7 7 8 8 8 8 8 9 10 11 9 9 9 9 9 10 10 11 11 11 12 12 13 13 13 13 12 12 11 10 10 10 9 9 9 10 11 12 12 13 14 14 14 14 15 16 16 15 15 14 13 13 13 13 14 14 13 12 12 13 13 13 12 11 11 12 12 13 13 13 12 12 12 12 12 12 12 12
5 5 6 6 6 7 7 7 7 7 8 9 9 9 8 8 8 8 8 8 9 9 9 10 10 11 12 12 12 13 13 13 13 12 12 11 11 10 10 10 10 10 10 10 10 10 10 10 11 12 14 15 16 16 16 15 14 14 13 12 12 12 13 13 13 12 12 12 12 12 12 12 11 11 11 12 13 14 14 13 13 12 12 11 12 12
6 6 6 6 6 7 7 7 7 8 8 9 9 9 9 8 8 8 8 8 9 9 9 10 10 11 12 13 13 13 13 13 13 13 13 11 10 10 10 10 10 11 11 11 10 10 9 9 9 10 11 15 17 17 15 14 14 13 13 12 11 11 12 12 12 12 13 12 12 12 12 12 11 11 11 11 12 13 13 13 13 13 12 11 11 12
Wind_Direction
289 294 298 298 299 300 301 306 312 316 315 317 318 316 314 314 312 309 307 305 302 300 299 299 299 300 301 304 306 307 308 309 309 309 310 310 310 310 310 310 310 310 309 309 309 309 308 308 307 307 307 306 306 306 306 305 305 305 305 305 305 305 305 305 304 304 303 303 303 302 302 302 302 301 301 300 298 297 296 295 293 292 291 290 289 288
294 297 299 302 303 302 302 310 315 315 314 315 314 314 313 312 310 308 305 302 299 298 300 300 300 300 300 301 304 306 307 308 308 309 309 309 309 309 309 310 309 309 309 308 308 308 307 307 306 306 305 305 305 305 305 305 304 304 304 304 304 304 304 303 303 302 302 302 301 301 301 300 300 299 298 297 296 295 295 294 293 293 292 291 290 289
305 304 304 304 304 304 304 311 312 311 308 308 308 308 308 308 307 306 306 305 303 300 299 299 300 299 298 298 301 304 305 306 307 308 308 309 309 309 309 309 308 308 308 307 307 306 306 305 305 305 304 304 304 304 303 303 303 303 303 303 303 302 302 302 301 301 300 300 300 299 299 298 297 297 296 295 295 295 294 294 293 293 292 291 290 289
304 303 305 305 303 299 299 306 308 308 305 303 302 302 302 302 303 303 303 304 303 302 299 296 295 296 296 296 299 301 303 305 306 307 308 308 308 308 308 307 307 306 306 306 305 305 305 304 304 304 303 303 303 303 302 302 302 302 301 301 301 301 300 300 300 299 299 299 298 298 297 297 296 296 295 295 295 294 294 294 293 292 292 291 290 289
301 300 303 305 304 301 299 302 304 305 303 301 299 299 299 298 299 300 302 301 301 300 298 295 293 292 293 294 297 300 302 304 306 306 307 307 307 306 306 305 305 304 304 304 304 303 303 303 303 302 302 302 302 301 301 301 301 300 300 300 300 300 299 299 299 298 298 298 297 297 296 296 295 295 295 294 294 294 293 293 292 292 291 291 290 289
296 298 300 304 305 304 304 304 304 304 304 301 299 298 298 296 298 299 302 301 300 299 297 295 291 289 289 290 295 298 301 304 305 306 306 305 305 304 304 303 303 303 303 303 302 302 302 302 301 301 301 301 301 300 300 300 300 299 299 299 299 298 298 298 298 297 297 297 296 296 295 295 295 294 294 293 293 293 292 292 291 291 291 290 290 289
295 297 302 302 300 299 299 299 302 303 305 304 305 303 300 298 296 296 295 295 295 295 294 292 289 287 286 288 293 298 301 303 304 304 304 303 303 303 302 302 302 302 302 301 301 301 301 300 300 300 300 300 299 299 299 299 299 298 298 298 298 297 297 297 296 296 296 295 295 295 294 294 293 293 293 292 292 292 291 291 291 290 290 290 289 289
296 300 302 300 298 297 296 295 296 298 300 304 307 308 307 304 299 294 290 288 288 289 293 294 293 291 290 291 295 298 301 302 302 302 302 302 302 302 302 301 301 301 301 300 300 300 300 299 299 299 299 299 298 298 298 298 298 297 297 297 296 296 296 295 295 295 294 294 294 293 293 293 293 292 292 291 291 291 290 290 290 289 289 289 289 288
295 298 299 297 298 300 301 298 295 294 294 298 301 304 307 306 303 300 296 292 290 290 296 301 303 303 300 299 299 301 301 301 300 301 301 301 301 301 301 301 301 300 300 299 299 299 299 298 298 298 298 297 297 297 297 296 296 296 296 295 295 295 294 294 294 293 293 293 293 292 292 292 292 291 291 291 290 290 289 289 289 288 288 288 288 287
289 291 294 295 295 297 300 300 299 294 286 286 288 292 297 302 305 307 307 305 301 300 301 305 308 308 308 306 305 303 302 300 299 299 299 299 299 299 299 299 299 299 298 298 298 298 297 297 297 297 296 296 296 295 295 295 295 294 294 294 293 293 293 293 292 292 292 292 291 291 291 291 290 290 290 290 289 289 288 288 288 287 287 287 287 286
288 289 292 294 294 293 291 293 295 294 288 285 282 280 280 290 302 310 313 312 313 313 310 309 310 311 312 311 308 305 302 299 298 297 297 296 297 297 296 296 296 296 296 296 296 296 296 295 295 294 294 294 294 293 293 293 293 293 293 292 292 292 291 291 291 290 290 290 290 290 289 289 289 289 289 288 288 288 287 287 287 286 286 286 285 285
294 295 295 296 295 294 291 289 289 289 291 293 294 293 289 294 308 314 314 313 315 316 316 312 309 307 307 307 305 303 300 296 295 294 293 293 293 293 294 293 293 293 294 294 293 293 293 293 292 292 292 292 292 292 292 291 291 291 291 290 290 290 289 289 289 288 288 288 288 288 288 287 287 287 287 287 287 286 286 286 285 285 285 284 284 283
294 296 295 293 294 294 293 295 296 299 301 304 309 311 313 319 322 319 312 309 311 313 314 311 307 302 297 294 294 295 295 293 292 291 291 291 291 291 291 291 290 290 291 291 289 288 289 290 290 290 290 290 290 290 290 289 289 289 289 288 288 288 288 287 287 287 287 286 286 286 286 286 286 286 285 285 285 285 285 285 284 284 283 283 283 282
293 293 292 291 292 293 295 297 301 304 307 311 314 316 318 321 321 318 310 305 306 307 307 304 302 300 296 287 281 280 284 288 291 291 292 290 290 291 292 291 290 290 290 289 286 285 286 287 287 287 288 288 288 288 287 287 287 286 286 286 286 286 286 286 286 286 286 285 285 285 285 285 285 285 285 284 284 284 284 284 283 283 283 282 282 281
291 292 291 291 292 294 297 300 303 306 310 317 320 320 318 317 315 312 308 305 304 306 305 301 299 296 291 283 277 274 279 287 293 297 297 293 291 291 292 292 291 290 289 288 286 286 286 285 285 284 285 283 283 283 283 284 284 285 285 286 286 286 286 286 286 286 286 286 286 286 286 286 285 285 285 284 284 284 283 283 283 282 282 282 281 281
287 288 288 290 292 295 300 305 310 312 315 319 320 318 314 311 309 307 305 303 305 307 308 306 305 301 293 280 272 273 284 293 297 299 300 297 295 294 295 294 293 291 290 287 287 287 287 285 282 281 281 281 281 282 283 284 284 285 286 287 287 288 288 288 288 288 288 288 287 287 287 286 286 285 285 284 284 283 283 283 283 282 282 282 281 280
282 283 285 290 295 299 307 312 313 313 314 313 311 307 304 303 303 304 303 303 304 305 305 307 308 308 306 302 294 286 300 305 304 302 300 296 296 297 297 294 292 291 290 287 286 286 287 284 282 280 279 281 283 284 285 286 287 288 289 289 289 289 289 289 289 288 288 287 287 287 286 286 285 285 285 284 284 284 283 283 283 282 282 281 281 280
282 286 292 297 301 305 310 310 310 308 307 304 301 298 296 297 299 300 300 300 300 301 301 301 301 301 304 305 306 312 324 315 309 304 300 296 296 297 298 292 288 287 288 286 285 284 284 283 282 282 283 285 286 287 288 289 289 289 290 289 289 289 289 288 288 287 287 287 286 286 286 286 285 285 285 284 284 284 283 283 283 282 282 281 280 280
290 295 302 303 304 304 305 304 303 302 300 299 300 301 301 300 298 296 294 292 292 293 295 296 294 293 294 295 301 313 327 318 310 303 299 296 295 296 298 290 285 283 283 283 284 284 283 282 282 283 285 287 287 288 288 289 289 288 288 288 288 287 287 287 287 286 286 286 286 286 285 285 285 285 284 284 284 283 283 283 282 282 281 281 280 280
294 296 298 301 302 300 296 294 294 294 295 297 299 300 298 297 295 291 289 288 287 286 288 289 290 291 292 294 300 311 324 318 308 299 294 292 292 293 295 288 284 283 282 281 282 283 283 282 283 284 285 286 286 287 287 287 287 287 287 287 286 286 286 286 286 286 286 285 285 285 285 285 284 284 284 283 283 282 282 282 281 281 280 280 279 279
295 293 294 296 294 292 288 288 288 290 293 296 296 293 290 289 288 286 286 287 288 288 288 287 289 293 298 299 303 310 318 313 304 297 292 290 288 288 290 285 282 282 283 283 284 284 283 283 282 282 283 284 285 285 286 286 286 286 286 286 286 285 285 285 285 285 284 284 284 284 284 284 283 283 283 282 282 282 281 281 280 280 280 279 279 278
287 286 285 282 279 277 279 283 286 288 289 289 286 283 282 285 286 287 289 291 292 293 293 292 294 297 301 299 300 303 307 300 293 290 292 289 287 286 289 287 286 286 286 288 289 288 284 283 282 281 282 284 285 285 286 286 286 285 285 285 285 284 284 284 284 283 283 283 283 283 283 283 283 283 282 282 282 281 281 280 280 280 279 279 278 278
272 274 276 274 271 270 275 279 281 281 280 276 274 274 276 280 283 287 293 297 299 299 299 297 297 296 294 292 292 293 293 287 285 285 287 286 288 290 299 298 294 290 287 290 291 290 286 283 282 282 283 284 285 285 285 285 285 285 284 284 284 283 283 283 283 283 283 283 283 283 283 282 282 282 282 281 281 281 280 280 280 279 279 278 278 278
265 269 272 271 269 268 270 272 273 272 269 267 267 270 274 279 283 289 296 303 304 302 300 298 295 291 288 288 287 288 288 285 283 283 281 282 286 292 304 304 296 291 287 289 291 291 289 286 283 283 283 284 284 285 285 285 284 284 284 284 283 283 283 283 283 282 282 282 282 282 282 282 282 282 281 281 281 281 280 280 280 279 279 278 278 278
268 268 269 270 270 270 272 273 275 278 281 281 283 286 290 293 296 298 300 301 299 297 296 294 292 291 291 292 291 289 287 283 281 280 280 283 286 290 297 298 294 290 289 291 292 292 290 288 286 285 283 283 283 284 284 284 284 283 283 283 282 282 282 282 282 282 282 282 282 282 282 282 282 282 282 281 281 281 281 280 280 280 279 279 279 278
280 279 278 279 279 281 283 286 289 293 298 301 304 306 307 306 304 302 298 296 296 296 295 292 291 291 294 294 292 290 290 284 279 277 279 284 287 290 292 293 291 290 292 294 296 295 292 290 289 288 286 284 283 283 283 283 282 282 282 282 282 282 281 282 282 282 282 282 282 282 282 282 282 282 282 282 282 282 282 281 281 281 280 280 280 279
285 284 284 284 285 288 292 296 300 303 306 307 307 307 307 307 303 299 294 296 297 298 297 295 294 294 294 291 289 289 292 290 284 278 276 281 284 287 292 296 297 296 296 296 295 294 292 291 291 291 288 284 282 281 280 281 281 282 282 282 282 282 282 282 283 283 283 283 283 283 283 283 283 282 282 282 282 282 282 281 281 281 281 281 280 279
283 283 284 288 292 297 302 305 307 307 307 305 304 304 303 302 298 294 293 298 301 299 294 292 293 294 294 292 290 290 291 289 284 279 277 279 282 286 296 301 302 300 299 296 294 292 290 289 289 288 286 283 281 279 279 282 283 283 284 284 284 284 283 283 283 283 283 283 282 282 282 282 282 281 281 281 281 280 280 280 280 280 280 279 278 276
280 283 289 296 303 307 309 309 307 305 302 301 301 301 301 298 293 291 293 299 299 294 288 287 287 289 291 292 292 290 287 282 280 281 289 287 286 288 299 301 302 301 302 299 296 292 285 283 284 285 285 286 286 285 285 287 287 286 286 284 284 283 282 282 282 281 281 281 281 281 280 280 280 279 279 279 279 278 278 278 279 279 278 276 274 273
282 291 301 308 311 311 308 304 300 298 297 297 298 299 298 293 287 286 289 292 290 286 284 285 286 288 291 295 294 291 284 280 285 300 309 297 292 293 301 300 300 302 306 304 301 296 288 283 283 286 289 291 292 292 291 289 286 284 283 282 280 279 279 279 279 279 279 279 279 279 278 278 278 278 278 277 277 277 277 277 277 276 275 272 271 270
305 310 311 310 307 303 298 292 289 289 292 294 295 295 292 285 279 277 280 281 280 280 282 284 286 288 291 294 295 292 289 292 306 317 316 299 292 294 301 300 299 300 303 303 302 301 299 296 293 292 293 293 292 290 287 285 282 279 278 278 277 276 276 277 277 277 277 277 277 277 277 277 277 277 277 276 276 276 276 276 275 275 273 270 269 268
314 311 305 302 298 293 289 286 285 285 286 287 287 284 281 278 276 275 276 277 277 279 281 283 286 287 287 285 284 284 288 296 307 311 309 298 292 293 298 297 297 298 298 292 290 292 297 299 301 300 296 293 290 287 284 283 282 281 280 278 276 275 276 277 277 277 277 277 276 276 276 276 276 276 276 276 275 275 275 274 274 273 271 269 267 267
311 307 301 298 295 291 287 285 283 283 282 280 278 276 275 275 276 277 278 278 279 281 283 285 287 287 286 282 279 278 282 289 299 304 304 298 293 292 295 295 295 295 296 288 282 279 281 288 295 298 295 290 288 287 286 285 284 283 281 279 279 278 278 278 277 276 276 276 276 276 276 276 275 275 275 275 274 274 274 273 272 271 270 268 266 265
306 302 298 295 292 288 285 282 281 280 280 279 277 276 275 276 278 280 282 282 282 282 282 284 286 288 289 286 283 281 281 285 294 299 301 296 292 291 293 292 293 294 295 290 286 282 277 281 287 293 294 291 288 286 288 287 285 283 279 278 278 279 279 278 277 275 275 275 275 275 275 274 274 274 274 273 273 273 272 272 271 270 268 267 266 265
301 298 295 292 290 288 286 283 281 279 279 279 279 280 281 281 284 284 286 285 284 283 281 281 282 283 285 286 286 285 284 286 291 294 294 291 290 290 291 289 291 292 291 289 288 287 284 283 285 289 292 293 290 287 284 285 284 282 278 276 276 277 278 278 276 276 275 274 274 273 272 272 272 271 271 271 270 270 270 270 269 268 267 266 265 264
298 295 291 289 288 287 286 285 284 283 282 282 282 283 286 287 289 289 289 288 285 284 282 279 277 275 275 277 279 281 283 286 288 290 289 287 287 287 287 285 286 287 287 286 286 285 285 285 286 287 288 290 291 290 287 285 284 283 280 279 279 279 279 277 276 275 275 274 273 272 271 271 270 269 269 269 269 269 269 269 268 268 267 266 264 263
292 290 288 286 286 286 286 287 287 288 289 289 290 291 293 293 292 292 290 287 284 281 280 277 275 272 269 269 270 273 277 282 284 284 283 282 281 281 280 281 281 281 282 283 284 284 283 285 287 287 286 285 288 291 294 294 290 286 282 282 281 280 279 277 275 274 274 273 272 272 271 271 270 270 270 270 270 270 270 269 268 268 267 266 265 264
289 288 287 284 283 284 285 287 290 293 296 297 298 298 296 294 292 289 287 284 280 277 275 274 273 271 268 268 269 270 272 275 277 278 277 276 274 273 275 277 277 276 275 276 279 281 282 284 287 288 286 285 284 287 292 294 293 289 285 283 281 279 278 277 275 273 271 271 271 271 271 271 271 271 272 272 271 271 270 268 267 267 266 266 265 264
285 285 284 285 286 287 291 293 295 297 298 297 296 296 295 292 289 286 283 281 277 274 271 271 271 271 270 269 269 270 271 273 274 274 274 272 269 268 270 273 274 274 272 271 273 275 277 279 281 283 286 288 288 288 288 288 288 289 289 287 282 277 274 274 274 272 271 271 272 272 272 271 271 271 272 271 270 269 267 267 265 263 263 264 264 264
284 283 284 288 290 294 296 297 297 297 296 295 294 294 294 292 290 287 283 281 280 279 276 274 273 273 273 272 272 271 271 271 272 272 271 268 265 264 265 269 272 273 273 271 270 270 272 273 275 276 279 283 286 288 288 286 286 287 290 288 285 279 275 276 276 275 274 273 273 273 273 272 270 269 268 267 266 264 264 263 262 260 258 257 259 260
287 287 289 293 295 296 295 295 295 295 294 296 296 296 295 295 294 294 292 289 287 286 285 282 281 279 277 274 272 271 270 270 269 268 268 265 263 261 262 264 268 271 274 272 271 269 270 271 273 274 276 279 281 282 282 283 285 286 287 286 285 285 285 282 280 278 277 274 272 272 272 272 270 268 266 265 263 261 261 261 260 259 256 254 252 253
290 292 294 296 296 294 293 293 294 295 297 298 297 296 296 296 296 297 297 296 294 291 290 290 291 289 286 281 277 273 270 269 268 267 266 263 261 260 260 262 264 267 271 272 271 270 268 269 271 274 276 279 281 282 282 283 284 285 284 285 287 288 287 281 277 276 276 274 273 271 271 271 269 268 266 265 263 262 259 258 257 257 256 253 251 249
293 293 292 292 291 291 292 295 297 299 301 300 297 294 293 293 294 295 296 295 295 295 295 294 293 292 291 290 287 283 276 271 268 267 267 265 263 261 261 261 262 264 267 271 273 273 270 268 269 272 275 277 279 280 282 285 286 285 283 284 287 290 288 284 281 279 275 274 273 272 270 269 268 267 266 264 263 261 260 258 258 257 256 255 252 249
289 288 288 289 291 294 297 299 301 301 299 296 293 292 291 292 293 294 294 294 294 294 294 293 292 290 289 290 290 290 288 282 276 271 269 268 266 264 264 264 264 263 264 268 272 276 277 273 271 272 275 277 278 279 281 284 286 286 285 284 283 281 280 284 286 285 279 275 273 271 269 268 268 268 266 264 263 261 259 258 257 256 255 254 252 250
285 287 290 294 298 302 303 301 300 298 295 293 292 293 293 294 294 294 293 292 292 292 291 293 294 294 292 292 293 295 294 292 287 281 275 271 270 269 269 268 268 267 266 266 268 272 277 278 279 279 279 278 277 278 280 283 285 286 284 283 281 278 276 279 281 282 280 277 274 271 269 269 269 268 267 264 261 259 258 257 257 256 254 251 249 248
287 292 296 301 303 303 301 299 297 295 293 292 292 293 294 295 294 293 290 290 290 291 292 293 293 293 293 295 297 298 297 295 292 289 286 281 278 274 272 270 269 269 268 267 267 267 269 274 279 283 285 281 278 276 276 280 283 284 284 283 282 280 278 278 277 276 276 275 274 272 271 270 269 267 266 264 262 260 257 255 254 253 252 250 248 246
294 298 301 302 301 299 296 296 295 294 293 292 292 292 292 292 291 290 288 288 289 291 293 293 291 290 289 293 295 297 297 297 296 295 294 292 288 284 280 276 273 270 270 270 269 269 269 271 275 278 282 283 281 279 276 277 277 279 281 282 281 280 278 276 274 273 272 272 272 272 272 270 268 266 265 265 264 261 258 255 253 251 250 248 247 245
301 302 302 301 298 296 294 295 294 294 294 293 293 292 291 290 290 290 290 290 291 292 294 293 292 290 289 290 291 292 293 295 297 297 297 296 293 290 287 285 282 279 276 275 274 274 273 271 271 271 273 276 277 278 278 277 275 275 277 278 279 277 275 274 273 272 271 270 269 268 268 266 265 265 266 266 265 262 260 257 254 251 249 247 246 244
305 302 299 296 294 293 293 294 294 294 294 294 293 293 291 289 290 291 291 291 291 291 292 292 292 292 291 291 291 291 292 292 293 294 295 296 296 295 293 292 292 290 287 283 280 278 277 272 267 263 262 265 269 273 277 276 275 273 273 273 273 273 273 273 273 272 270 268 267 264 260 258 258 260 264 265 265 263 262 260 257 254 251 248 246 244
297 294 292 291 290 290 292 293 294 294 293 293 293 293 293 291 290 289 288 289 289 289 288 289 290 291 291 291 292 293 293 293 293 294 295 295 296 297 297 298 299 299 297 292 289 286 284 279 269 261 256 258 262 267 273 275 275 273 271 270 269 270 271 273 273 272 270 270 268 264 259 257 255 256 258 260 262 263 263 261 258 255 252 249 246 245
292 289 288 287 288 289 290 291 291 291 291 291 292 293 294 293 292 291 289 289 289 289 289 289 289 289 289 290 291 292 292 293 294 295 295 296 297 299 299 301 304 305 303 301 298 296 293 290 285 275 264 260 261 264 270 274 277 278 275 272 270 270 271 272 273 273 272 271 269 267 263 259 256 255 253 256 259 261 262 260 258 256 253 249 247 245